Flag for U.S.A. Weather past 2 weeks in Leesburg, Virginia, U.S.A.

Now
46 °F

Clear.


Feels Like: 46 °F
Forecast: 44 / 66 °F
Wind: No wind

Location: Leesburg / Godfrey


UV Index: 0 (Low)

Visibility: 10 mi


Pressure: 30.03 "Hg

Humidity: 62%

Dew point: 34 °F

Location of LeesburgLocation

Historic Weather in Leesburg

°F

Leesburg temperature yesterday

Maximum temperature yesterday: 64 °F (at 6:15 PM)
Minimum temperature yesterday: 41 °F (at 5:15 AM)
Average temperature yesterday: 51 °F

Past Weeks' High & Low Weather Summary

 TemperatureHumidityPressure
High86 °F (Apr 13, 3:15 PM)100% (Apr 11, 8:55 PM)30.66 "Hg (Apr 11, 8:55 PM)
Low32 °F (Apr 16, 2:55 AM)19% (Apr 21, 1:55 PM)29.55 "Hg (Apr 15, 10:55 AM)
Average56 °F59%30.13 "Hg
* Reported Apr 9 11:15 PM — Apr 24 11:35 PM, Leesburg, Weather by CustomWeather, © 2014

Note: Actual official high and low records may vary slightly from our data, if they occured in-between our weather recording intervals... More about our weather records

Advertising

Historic Weather Conditions — Data for Previous 24 hours

 ConditionsComfort  
Time TempWeatherWind HumidityBarometerVisibility
11:35 PM
Apr 24
50 °FClear.3 mph54%30.03 "Hg10 mi
11:15 PM50 °FClear.3 mph54%30.03 "Hg10 mi
10:55 PM46 °FClear.No wind62%30.04 "Hg10 mi
10:35 PM52 °FClear.No wind47%30.03 "Hg10 mi
10:15 PM48 °FClear.3 mph58%30.04 "Hg10 mi
9:55 PM50 °FClear.No wind58%30.03 "Hg10 mi
9:15 PM52 °FClear.No wind47%30.03 "Hg10 mi
8:55 PM55 °FSunny.3 mph41%30.03 "Hg10 mi
8:35 PM59 °FSunny.3 mph34%30.02 "Hg10 mi
8:15 PM61 °FSunny.No wind31%30.02 "Hg10 mi
7:55 PM61 °FSunny.3 mph29%30.01 "Hg10 mi
7:15 PM63 °FSunny.No wind27%30.01 "Hg10 mi
6:55 PM63 °FSunny.No wind30%30.01 "Hg10 mi
6:15 PM64 °FSunny.No wind26%30.01 "Hg10 mi
5:55 PM63 °FSunny.6 mph30%30.02 "Hg10 mi
5:15 PM63 °FSunny.3 mph27%30.01 "Hg10 mi
4:55 PM63 °FSunny.5 mph30%30.01 "Hg10 mi
4:35 PM63 °FSunny.6 mph27%30.02 "Hg10 mi
4:15 PM63 °FSunny.8 mph30%30.02 "Hg10 mi
3:55 PM63 °FSunny.8 mph27%30.03 "Hg10 mi
3:35 PM61 °FSunny.6 mph31%30.03 "Hg10 mi
3:15 PM63 °FSunny.13 mph30%30.04 "Hg10 mi
2:55 PM61 °FSunny.8 mph31%30.05 "Hg10 mi
2:35 PM59 °FSunny.3 mph34%30.06 "Hg10 mi
2:15 PM59 °FSunny.7 mph34%30.07 "Hg10 mi
1:55 PM59 °FSunny.6 mph34%30.08 "Hg10 mi
1:35 PM59 °FSunny.12 mph31%30.08 "Hg10 mi
1:15 PM59 °FSunny.12 mph34%30.08 "Hg10 mi
12:55 PM55 °FSunny.9 mph38%30.10 "Hg10 mi
12:35 PM55 °FSunny.6 mph38%30.11 "Hg10 mi
12:15 PM54 °FSunny.10 mph38%30.12 "Hg10 mi
11:55 AM54 °FSunny.8 mph38%30.13 "Hg10 mi
11:35 AM54 °FSunny.13 mph35%30.13 "Hg10 mi
11:15 AM52 °FSunny.13 mph41%30.14 "Hg10 mi
10:55 AM52 °FSunny.16 mph41%30.15 "Hg10 mi
10:35 AM52 °FSunny.16 mph41%30.15 "Hg10 mi
10:15 AM50 °FSunny.13 mph40%30.15 "Hg10 mi
9:55 AM50 °FSunny.13 mph40%30.14 "Hg10 mi
9:15 AM46 °FSunny.13 mph46%30.16 "Hg10 mi
8:55 AM46 °FSunny.12 mph46%30.15 "Hg10 mi
8:15 AM45 °FSunny.13 mph49%30.14 "Hg10 mi
7:55 AM45 °FSunny.12 mph49%30.13 "Hg10 mi
7:35 AM43 °FSunny.10 mph57%30.12 "Hg10 mi
7:15 AM43 °FClear.7 mph53%30.12 "Hg10 mi
6:55 AM41 °FClear.6 mph57%30.11 "Hg10 mi
6:35 AM41 °FClear.5 mph57%30.11 "Hg10 mi
6:15 AM41 °FClear.8 mph57%30.09 "Hg10 mi
5:55 AM41 °FClear.9 mph57%30.08 "Hg10 mi
5:35 AM41 °FClear.10 mph57%30.07 "Hg10 mi
5:15 AM41 °FClear.10 mph57%30.06 "Hg10 mi
4:55 AM43 °FClear.12 mph53%30.06 "Hg10 mi
4:15 AM43 °FClear.10 mph57%30.05 "Hg10 mi
3:55 AM45 °FClear.9 mph53%30.04 "Hg10 mi
3:15 AM43 °FClear.7 mph61%30.03 "Hg10 mi
2:55 AM43 °FClear.8 mph61%30.02 "Hg10 mi
2:35 AM45 °FClear.7 mph61%30.03 "Hg10 mi
2:15 AM45 °FClear.9 mph61%30.03 "Hg10 mi
1:55 AM45 °FClear.8 mph61%30.03 "Hg10 mi
1:35 AM45 °FClear.9 mph61%30.03 "Hg10 mi
1:15 AM45 °FClear.9 mph61%30.02 "Hg10 mi
12:55 AM45 °FClear.10 mph61%30.02 "Hg10 mi
12:35 AM45 °FClear.13 mph61%30.02 "Hg10 mi
12:15 AM46 °FClear.14 mph57%30.02 "Hg10 mi
Weather by CustomWeather, © 2014

See weather overview